Weather History for Rockwall, TX

Change the Weather History Date:

Saturday, November 3, 2012

  Actual Average (KDFW) Record (KDFW)
Temperature  
Mean Temperature 70 °F 62 °F  
Max Temperature 81 °F 72 °F 87 °F (1948)
Min Temperature 59 °F 51 °F 25 °F (1991)
Degree Days  
Heating Degree Days 0 5  
Month to date heating degree days 15  
Since 1 July heating degree days 87  
Cooling Degree Days 5 2  
Month to date cooling degree days 6  
Year to date cooling degree days 2729  
Growing Degree Days 20 (Base 50)    
Moisture  
Dew Point 60 °F    
Average Humidity 73    
Maximum Humidity 99    
Minimum Humidity 52    
Precipitation  
Precipitation 0.00 in 0.11 in 2.54 in (1964)
Month to date precipitation 0.35  
Year to date precipitation 31.23  
Snow  
Snow - 0.00 in T in (1936)
Month to date snowfall 0.0  
Since 1 July snowfall 0.0  
Since 1 September snowfall 0.0  
Snow Depth -    
Sea Level Pressure  
Sea Level Pressure 30.02 in    
Wind  
Wind Speed 7 mph ()    
Max Wind Speed 14 mph    
Max Gust Speed 20 mph    
Visibility 9.9 miles    
Events Thunderstorm    
T = Trace of Precipitation, MM = Missing Value Source: Averaged Metar Reports

Daily Weather History Graph

Daily Weather History Graph

Search for Another Location

Airport:

Trip Planner

Search our weather history database for the weather conditions in past years. The results will help you decide how hot, cold, wet, or windy it might be!

Date:

Astronomy

Nov. 03, 2012 Rise Set
Actual Time 7:45 AM CDT 6:32 PM CDT
Civil Twilight 7:20 AM CDT 6:57 PM CDT
Nautical Twilight 6:50 AM CDT 7:27 PM CDT
Astronomical Twilight 6:21 AM CDT 7:56 PM CDT
Moon 10:19 PM CDT (11/3) 11:45 AM CDT (11/3)
Length of Visible Light 11h 37m
Length of Day
10h 46m
Waning Gibbous, 80% of the Moon is Illuminated
Nov 3
Waning Gibbous
Nov 6
Last Quarter
Nov 13
New
Nov 20
First Quarter
Nov 28
Full

Hourly Weather History & Observations

Time (CDT) Temp. Heat Index Dew Point Humidity Pressure Visibility Wind Dir Wind Speed Gust Speed Precip Events Conditions
12:15 AM 66.6 °F - 57.2 °F 72% 29.96 in 10.0 mi South 8.1 mph - N/A   Clear
12:35 AM 65.8 °F - 57.2 °F 74% 29.95 in 10.0 mi South 9.2 mph - N/A   Clear
12:55 AM 66.2 °F - 57.4 °F 73% 29.95 in 10.0 mi South 9.2 mph - N/A   Clear
1:15 AM 66.4 °F - 57.7 °F 74% 29.95 in 10.0 mi South 12.7 mph - N/A   Clear
1:35 AM 67.3 °F - 58.3 °F 73% 29.95 in 10.0 mi South 13.8 mph 19.6 mph N/A   Clear
1:55 AM 67.3 °F - 59.0 °F 75% 29.95 in 10.0 mi South 12.7 mph - N/A   Clear
2:15 AM 67.1 °F - 59.2 °F 76% 29.95 in 10.0 mi South 12.7 mph - N/A   Clear
2:35 AM 66.4 °F - 59.5 °F 79% 29.96 in 10.0 mi South 10.4 mph - N/A   Clear
2:55 AM 66.4 °F - 60.1 °F 80% 29.96 in 10.0 mi South 11.5 mph - N/A   Clear
3:15 AM 65.8 °F - 60.4 °F 83% 29.96 in 10.0 mi South 11.5 mph - N/A   Clear
3:35 AM 65.3 °F - 60.4 °F 84% 29.96 in 10.0 mi South 8.1 mph - N/A   Clear
3:55 AM 64.4 °F - 60.3 °F 86% 29.97 in 10.0 mi SSW 4.6 mph - N/A   Clear
4:15 AM 63.1 °F - 59.9 °F 89% 29.97 in 10.0 mi South 4.6 mph - N/A   Clear
4:35 AM 62.2 °F - 59.7 °F 91% 29.97 in 10.0 mi South 4.6 mph - N/A   Clear
5:15 AM 61.2 °F - 59.5 °F 94% 29.99 in 10.0 mi South 4.6 mph - N/A   Clear
5:35 AM 61.3 °F - 59.9 °F 95% 29.99 in 10.0 mi South 5.8 mph - N/A   Clear
5:55 AM 61.7 °F - 60.3 °F 95% 30.02 in 10.0 mi Calm Calm - N/A   Clear
6:15 AM 62.1 °F - 60.4 °F 94% 30.02 in 10.0 mi Calm Calm - N/A   Clear
6:35 AM 61.0 °F - 59.9 °F 96% 30.03 in 10.0 mi South 3.5 mph - N/A   Clear
6:55 AM 61.2 °F - 60.1 °F 96% 30.04 in 10.0 mi South 3.5 mph - N/A   Clear
7:15 AM 59.7 °F - 59.2 °F 98% 30.03 in 10.0 mi South 4.6 mph - N/A   Clear
7:35 AM 60.6 °F - 59.9 °F 97% 30.04 in 10.0 mi South 6.9 mph - N/A   Clear
7:55 AM 61.2 °F - 60.6 °F 98% 30.04 in 10.0 mi South 5.8 mph - N/A   Clear
8:15 AM 61.2 °F - 60.8 °F 99% 30.05 in 7.0 mi South 4.6 mph - N/A   Clear
8:35 AM 61.7 °F - 61.0 °F 97% 30.06 in 7.0 mi South 5.8 mph - N/A   Clear
8:55 AM 63.3 °F - 62.4 °F 97% 30.07 in 7.0 mi SSW 5.8 mph - N/A   Clear
9:15 AM 65.1 °F - 63.3 °F 94% 30.07 in 10.0 mi South 10.4 mph - N/A   Scattered Clouds
9:35 AM 65.8 °F - 63.9 °F 93% 30.07 in 10.0 mi South 11.5 mph - N/A   Mostly Cloudy
10:15 AM 68.0 °F - 65.1 °F 90% 30.07 in 10.0 mi SSW 6.9 mph - N/A   Overcast
10:35 AM 68.7 °F - 64.9 °F 88% 30.07 in 10.0 mi SW 6.9 mph - N/A   Overcast
10:55 AM 69.3 °F - 65.3 °F 87% 30.07 in 10.0 mi SSW 5.8 mph - N/A   Overcast
11:15 AM 70.2 °F - 65.1 °F 84% 30.07 in 10.0 mi SSW 8.1 mph - N/A   Mostly Cloudy
11:35 AM 71.6 °F - 65.3 °F 80% 30.07 in 10.0 mi SSW 8.1 mph - N/A   Scattered Clouds
11:55 AM 73.4 °F - 65.7 °F 77% 30.07 in 10.0 mi SW 6.9 mph - N/A   Clear
12:15 PM 74.3 °F - 65.3 °F 73% 30.06 in 10.0 mi SW 3.5 mph - N/A   Clear
12:35 PM 76.1 °F - 65.5 °F 70% 30.05 in 10.0 mi South 5.8 mph - N/A   Clear
12:55 PM 77.4 °F - 65.5 °F 67% 30.05 in 10.0 mi SW 5.8 mph - N/A   Clear
1:15 PM 77.7 °F - 65.5 °F 66% 30.05 in 10.0 mi South 5.8 mph - N/A   Clear
1:35 PM 78.8 °F - 65.5 °F 64% 30.04 in 10.0 mi SW 8.1 mph - N/A   Clear
2:15 PM 80.1 °F 82.0 °F 65.5 °F 61% 30.02 in 10.0 mi WSW 3.5 mph - N/A   Scattered Clouds
2:35 PM 80.1 °F 82.0 °F 65.5 °F 61% 30.02 in 10.0 mi SSW 5.8 mph - N/A   Scattered Clouds
2:55 PM 80.1 °F 81.9 °F 65.1 °F 60% 30.00 in 10.0 mi SSW 3.5 mph - N/A   Scattered Clouds
3:15 PM 80.8 °F 82.4 °F 64.4 °F 57% 29.99 in 10.0 mi SSW 5.8 mph - N/A   Scattered Clouds
3:35 PM 80.8 °F 82.2 °F 63.5 °F 56% 29.99 in 10.0 mi Calm Calm - N/A   Clear
4:15 PM 81.7 °F 82.9 °F 62.8 °F 53% 29.98 in 10.0 mi West 3.5 mph - N/A   Clear
4:35 PM 81.9 °F 82.9 °F 62.4 °F 52% 29.98 in 10.0 mi South 3.5 mph - N/A   Clear
4:55 PM 81.9 °F 82.9 °F 62.6 °F 52% 29.98 in 10.0 mi SW 3.5 mph - N/A   Clear
5:15 PM 81.7 °F 82.7 °F 62.4 °F 52% 29.97 in 10.0 mi SSW 4.6 mph - N/A   Clear
5:35 PM 79.3 °F - 61.9 °F 55% 29.98 in 10.0 mi West 3.5 mph - N/A   Clear
6:15 PM 77.9 °F - 63.0 °F 60% 29.99 in 10.0 mi NNW 3.5 mph - N/A   Overcast
6:55 PM 75.2 °F - 61.9 °F 63% 30.00 in 10.0 mi NNE 8.1 mph - N/A   Overcast
7:15 PM 74.8 °F - 57.7 °F 55% 30.00 in 10.0 mi NNE 9.2 mph - N/A Thunderstorm Mostly Cloudy
7:35 PM 73.9 °F - 59.4 °F 60% 30.03 in 10.0 mi NE 8.1 mph - N/A Thunderstorm Thunderstorm
7:55 PM 72.3 °F - 57.4 °F 59% 30.04 in 10.0 mi East 4.6 mph - N/A Thunderstorm Thunderstorm
8:15 PM 70.3 °F - 57.6 °F 64% 30.05 in 10.0 mi NNE 4.6 mph - N/A Thunderstorm Scattered Clouds
8:35 PM 70.0 °F - 54.1 °F 57% 30.04 in 10.0 mi NE 8.1 mph - N/A   Clear
9:15 PM 68.7 °F - 50.5 °F 52% 30.06 in 10.0 mi NNE 6.9 mph - N/A Thunderstorm Clear
9:35 PM 67.5 °F - 49.3 °F 52% 30.07 in 10.0 mi NNE 5.8 mph - N/A   Scattered Clouds
9:55 PM 66.2 °F - 48.6 °F 53% 30.08 in 10.0 mi NE 4.6 mph - N/A   Scattered Clouds
10:15 PM 65.3 °F - 47.3 °F 52% 30.09 in 10.0 mi NE 4.6 mph - N/A   Scattered Clouds
10:35 PM 64.0 °F - 47.5 °F 55% 30.09 in 10.0 mi ENE 3.5 mph - N/A Thunderstorm Scattered Clouds
10:55 PM 63.5 °F - 48.6 °F 58% 30.10 in 10.0 mi ENE 3.5 mph - N/A   Scattered Clouds
11:15 PM 64.0 °F - 46.0 °F 52% 30.10 in 10.0 mi NE 5.8 mph - N/A   Mostly Cloudy
11:35 PM 62.1 °F - 45.3 °F 54% 30.10 in 10.0 mi NE 5.8 mph - N/A   Scattered Clouds
11:55 PM 61.0 °F - 44.8 °F 55% 30.10 in 10.0 mi North 4.6 mph - N/A   Clear